CAPE
60 0 0 0 0 0 0 0 0 1 129 259 155 207 108 15 6 0 0 0 0 0 0 0 0 0 0 0 0 8 48 68 158 336 362 210 228 169 243 171 249 434 592 468
0 0 0 0 0 0 0 0 0 16 283 255 272 254 206 16 0 0 0 0 0 0 0 0 0 0 0 0 0 0 28 27 99 305 434 325 198 137 332 284 388 732 699 610
0 0 0 0 0 0 0 0 0 0 297 254 385 184 276 133 26 0 0 0 0 0 0 0 0 0 0 0 0 0 0 69 163 248 209 88 56 82 184 178 100 588 718 591
0 0 0 0 0 0 0 0 0 243 159 15 183 122 0 116 127 56 14 0 0 0 0 0 0 0 0 0 0 0 0 0 202 291 329 406 367 297 251 220 26 142 769 583
0 0 0 0 0 0 0 0 164 194 3 115 290 319 117 3 86 110 150 58 18 0 0 0 0 0 0 0 0 0 0 0 203 377 415 408 428 27 60 57 80 29 152 512
0 0 0 0 0 0 0 0 0 0 0 0 0 333 1 15 115 136 115 283 106 19 0 0 0 0 0 0 0 0 0 0 174 393 415 439 507 54 106 121 140 7 10 0
0 0 0 0 0 0 0 0 0 0 0 0 0 267 228 0 0 130 181 210 363 330 143 16 5 0 0 0 0 0 0 0 253 421 445 438 448 138 147 190 238 52 0 0
0 0 0 0 0 0 0 0 0 0 0 0 0 0 0 0 241 0 194 855 673 488 28 166 78 34 0 0 0 0 27 75 345 424 481 443 418 258 186 214 238 156 66 6
0 0 0 0 0 0 0 0 0 0 0 0 0 0 5 537 1013 978 1147 1009 1020 869 577 0 139 105 26 1 2 57 164 260 387 428 448 350 332 285 222 289 192 139 40 3
0 0 0 0 0 0 0 0 0 0 0 0 0 0 7 704 1066 1144 1144 966 959 802 341 184 142 82 77 142 256 208 227 327 367 442 439 366 240 263 315 286 268 157 89 0
0 0 0 0 0 0 0 0 0 0 0 0 0 3 0 148 761 1027 1028 975 910 713 451 476 524 527 476 467 430 436 487 435 295 417 411 414 310 291 361 485 439 327 247 221
0 0 0 0 0 0 0 0 0 0 0 0 0 0 0 0 104 656 959 1003 836 651 475 568 630 627 580 462 287 226 428 476 204 191 286 281 369 504 675 784 736 605 547 508
0 0 0 0 0 0 0 0 0 0 0 0 0 122 0 4 155 398 995 959 733 597 438 381 247 73 5 23 110 69 502 536 494 469 489 473 370 298 594 845 999 1057 910 812
0 0 0 0 0 0 0 0 0 0 0 0 0 0 0 0 236 101 395 843 703 486 295 156 87 3 0 16 15 0 87 695 656 817 875 990 1044 765 848 1127 1115 1111 1118 1271
0 0 0 0 0 0 0 0 0 0 0 0 0 0 0 150 150 25 0 488 709 559 327 32 95 152 71 48 20 2 0 251 1168 1109 516 23 411 1032 119 2 0 0 0 78
0 0 0 0 0 0 0 0 0 0 0 0 0 9 60 340 645 764 504 459 721 662 569 359 281 240 142 26 4 4 0 1 32 185 319 515 1610 375 5 0 0 0 0 0
0 0 0 0 0 0 0 0 0 0 0 0 0 0 21 620 508 492 969 419 540 1285 1068 772 414 31 3 155 142 134 167 90 62 99 160 256 1153 938 75 0 0 0 0 10
0 0 0 0 0 0 0 0 0 0 0 0 0 0 13 67 13 65 102 841 521 363 344 506 548 633 584 555 534 147 235 164 49 89 164 333 83 58 3 0 0 2 2 2
0 0 0 0 0 0 0 0 0 7 0 0 0 0 0 0 0 0 0 0 14 45 35 420 536 486 208 224 273 0 23 20 136 92 107 1 0 0 0 0 0 0 0 0
0 0 0 0 0 0 0 0 0 0 0 0 0 0 0 0 0 0 0 0 0 0 0 30 235 309 52 0 0 0 0 0 0 0 47 197 16 0 0 0 0 0 0 0
0 0 0 0 0 0 0 0 0 0 0 0 0 0 0 0 0 0 0 0 0 0 0 0 22 37 0 0 0 0 0 0 0 0 0 15 19 6 0 0 0 0 0 0
0 0 0 0 0 0 0 0 0 0 0 0 0 0 0 0 0 0 0 0 0 0 0 0 0 0 0 0 0 0 0 0 0 0 0 0 0 130 140 2 0 0 0 0
0 0 0 0 0 0 0 0 0 0 0 0 0 0 0 0 0 0 0 0 0 0 0 0 0 0 0 0 0 0 0 0 0 0 0 0 0 0 24 98 6 1 0 3
0 0 0 0 0 0 0 0 0 0 0 0 0 0 0 0 0 0 0 0 0 0 0 0 0 0 0 0 0 0 0 0 0 0 0 0 0 0 0 0 0 13 250 374
0 0 0 0 0 0 0 0 0 0 0 0 0 0 0 0 0 0 0 0 0 0 0 0 0 0 0 0 0 0 0 0 0 0 0 0 0 0 3 0 0 0 0 19
0 0 0 0 0 0 0 0 0 0 0 0 0 0 0 0 0 0 0 0 0 0 0 0 0 0 0 0 0 0 0 0 0 0 0 0 1 0 0 14 10 0 0 0
CIN
-409 -1 0 -1 0 0 0 0 0 -217 -327 -325 -294 -297 -568 -713 -739 0 0 0 0 0 0 0 0 0 0 0 0 -386 -318 -306 -234 -191 -184 -225 -206 -223 -194 -215 -194 -172 -139 -136
0 0 0 0 0 0 0 0 0 -255 -335 -261 -312 -330 -525 -676 0 0 0 0 0 0 0 0 0 0 0 0 0 0 -340 -352 -274 -181 -162 -187 -229 -267 -210 -206 -193 -142 -144 -136
0 0 0 0 0 0 0 0 0 0 -341 -371 -317 -244 -452 -669 -709 0 0 0 0 0 0 0 0 0 0 0 0 0 0 -366 -302 -239 -255 -299 -300 -344 -282 -271 -277 -172 -151 -146
0 0 0 0 0 0 0 0 0 -302 -214 -199 -361 -121 -1 -595 -658 -690 -714 0 0 0 0 0 0 0 0 0 0 0 0 -44 -316 -273 -241 -218 -175 -187 -234 -227 -298 -267 -150 -158
0 0 0 0 0 0 0 0 -300 -345 -21 -319 -332 -201 -294 -180 -547 -599 -588 -691 -729 -7 0 0 0 0 0 0 0 0 0 0 -351 -285 -275 -255 -201 -285 -323 -308 -237 -298 -246 -161
0 0 0 0 0 0 0 0 0 0 0 0 0 -256 -85 -81 -343 -402 -569 -539 -618 -712 -228 0 0 0 0 0 0 0 0 0 -420 -323 -305 -292 -258 -358 -304 -255 -246 -348 -384 0
0 0 0 0 0 0 0 0 0 0 0 0 0 -294 -205 0 0 -415 -406 -558 -534 -566 -601 -679 -426 0 0 0 0 0 0 0 -457 -381 -345 -339 -326 -340 -316 -275 -242 -263 0 0
0 0 0 0 0 0 0 0 0 0 0 0 0 0 0 0 -511 0 -331 -385 -456 -516 -663 -540 -638 -663 0 0 0 0 -746 -640 -483 -432 -399 -372 -331 -338 -296 -311 -289 -257 -316 -90
0 0 0 0 0 0 0 0 0 0 0 0 0 0 -29 -349 -309 -319 -246 -287 -326 -434 -550 -57 -587 -624 -678 -428 -116 -749 -728 -628 -574 -490 -407 -394 -368 -342 -335 -345 -331 -328 -351 -36
0 0 0 0 0 0 0 0 0 0 0 0 0 0 -84 -172 -173 -271 -297 -386 -463 -588 -709 -639 -626 -683 -985 -916 -843 -736 -654 -597 -568 -485 -448 -413 -414 -382 -331 -356 -336 -335 -392 0
0 0 0 0 0 0 0 0 0 0 0 0 0 -17 0 -218 -219 -217 -309 -437 -541 -623 -807 -863 -916 -862 -824 -772 -716 -583 -516 -502 -503 -498 -426 -415 -398 -383 -373 -346 -343 -358 -385 -371
0 0 0 0 0 0 0 0 0 0 0 0 0 0 0 0 -380 -356 -385 -387 -562 -684 -786 -794 -725 -700 -674 -635 -590 -456 -393 -378 -423 -424 -353 -338 -287 -298 -298 -285 -313 -365 -354 -366
0 0 0 0 0 0 0 0 0 0 0 0 0 -67 0 -99 -369 -433 -298 -421 -578 -627 -723 -768 -856 -1004 -796 -936 -706 -624 -413 -436 -433 -407 -422 -438 -398 -339 -305 -280 -207 -199 -258 -305
0 0 0 0 0 0 0 0 0 0 0 0 0 0 0 0 -504 -559 -410 -426 -568 -681 -770 -860 -897 -482 -100 -903 -389 0 -604 -438 -487 -436 -383 -381 -364 -370 -273 -157 -137 -117 -100 -80
0 0 0 0 0 0 0 0 0 0 0 0 0 0 0 -529 -620 -274 0 -531 -502 -543 -604 -823 -735 -734 -845 -812 -731 -546 0 -569 -356 -412 -502 -156 -480 -297 -674 -272 0 0 0 -75
0 0 0 0 0 0 0 0 0 0 0 0 0 -297 -534 -634 -604 -580 -515 -502 -422 -399 -475 -539 -587 -584 -656 -775 -755 -763 0 -407 -833 -605 -521 -480 -223 -474 -403 0 0 0 0 0
0 0 0 0 0 0 0 0 0 0 0 0 0 0 -591 -477 -531 -607 -510 -564 -463 -386 -445 -464 -520 -697 -567 -635 -624 -591 -511 -539 -494 -457 -471 -467 -243 -273 -610 0 0 0 -128 -606
0 0 0 0 0 0 0 0 0 0 0 0 0 0 -245 -645 -324 -711 -679 -442 -499 -531 -526 -439 -456 -440 -495 -497 -493 -591 -484 -424 -399 -354 -325 -316 -485 -517 -260 0 0 -361 -345 -457
0 0 0 0 0 0 0 0 0 -158 0 0 0 0 0 0 0 0 0 0 -479 -589 -621 -484 -493 -510 -565 -536 -491 -1 -507 -78 -364 -290 -264 0 0 0 0 0 0 0 0 0
0 0 0 0 0 0 0 0 0 0 0 0 0 0 0 0 0 0 0 0 0 0 0 -602 -489 -464 -646 0 0 0 0 0 0 0 -319 -195 -60 0 0 0 0 0 0 0
0 0 0 0 0 0 0 0 0 0 0 0 0 0 0 0 0 0 0 0 0 0 0 0 -578 -396 0 0 0 0 0 0 0 0 0 -213 -360 -228 0 0 0 0 0 0
0 0 0 0 0 0 0 0 0 0 0 0 0 0 0 0 0 0 0 0 0 0 0 0 0 0 0 0 0 0 0 0 0 0 0 0 0 -274 -249 -328 0 0 0 0
0 0 0 0 0 0 0 0 0 0 0 0 0 0 0 0 0 0 0 0 0 0 0 0 0 0 0 0 0 0 0 0 0 0 0 0 0 -7 -441 -229 -382 0 0 0
0 0 0 0 0 0 0 0 0 0 0 0 0 0 0 0 0 0 0 0 0 0 0 0 0 0 0 0 0 0 0 0 0 0 0 0 0 0 0 0 0 -259 -67 -34
0 0 0 0 0 0 0 0 0 0 0 0 0 0 0 0 0 0 0 0 0 0 0 0 0 0 0 0 0 0 0 0 0 0 0 0 0 0 -3 -1 0 0 0 -86
0 0 0 0 0 0 0 0 0 0 0 0 0 0 0 0 0 0 0 0 0 0 0 0 0 0 0 0 0 0 0 0 0 0 0 0 0 0 0 0 -1 0 0 0
Wind_Speed
5 3 7 12 9 5 3 5 7 4 2 1 3 2 9 11 9 8 9 10 12 14 10 10 11 11 10 7 8 9 8 6 7 3 3 2 5 3 3 3 5 5 5 6
2 7 12 4 7 6 5 2 5 2 3 1 7 2 8 14 11 13 13 12 14 11 10 11 11 11 11 11 11 10 11 9 8 6 3 2 2 2 1 2 4 6 7 7
6 10 3 4 5 4 3 5 5 4 2 1 3 7 5 9 6 10 11 14 14 16 16 15 14 15 12 12 12 12 13 12 12 11 4 2 2 1 1 3 3 5 7 7
6 5 3 4 5 6 2 8 5 9 5 3 3 6 5 4 11 15 16 15 16 17 16 13 14 15 17 16 10 11 11 11 10 11 9 10 8 7 5 4 3 4 7 8
9 2 5 4 5 4 8 6 8 4 5 4 1 3 6 4 7 12 14 19 18 18 18 18 18 17 18 16 14 12 10 11 12 13 12 10 9 5 3 3 5 5 5 7
8 4 3 7 2 5 6 6 8 6 3 4 2 4 7 1 5 2 9 13 17 19 19 20 19 17 16 12 14 12 13 13 13 13 14 14 14 8 5 4 5 4 3 3
8 4 3 4 1 3 7 7 3 5 3 6 4 5 10 9 4 4 8 11 15 18 19 21 23 20 18 18 17 14 15 14 13 14 14 14 14 10 11 8 6 5 4 4
2 9 4 5 3 4 4 6 6 2 2 2 3 3 6 6 5 2 2 3 6 8 16 19 21 19 19 20 18 14 12 13 14 13 15 13 12 8 8 7 6 5 6 7
2 5 6 1 3 2 1 5 4 8 3 3 3 6 5 6 9 6 6 7 7 7 4 11 14 17 16 13 14 16 14 14 13 15 11 10 10 9 9 8 5 5 4 5
4 2 2 6 3 5 1 5 5 5 1 1 5 4 5 3 3 1 5 7 7 7 8 2 4 8 6 8 7 10 11 14 13 11 11 10 11 10 9 5 8 8 6 5
4 3 7 3 5 3 5 4 7 6 4 5 1 7 7 6 6 5 5 3 3 5 6 5 5 6 8 8 12 12 10 10 6 9 9 10 10 10 8 9 8 10 6 7
2 5 1 1 2 2 2 3 4 6 2 2 3 8 3 5 1 4 6 5 3 4 6 6 6 5 4 4 6 0 6 4 5 6 4 1 5 4 6 8 9 8 10 7
5 3 4 8 8 6 6 3 5 5 3 3 5 7 0 3 5 3 3 4 4 6 6 6 7 6 6 5 5 6 4 9 9 10 10 10 10 8 9 8 2 2 5 7
9 4 7 7 7 4 2 3 3 5 4 4 6 5 4 7 7 8 6 3 2 5 6 4 4 3 2 2 6 6 3 5 7 9 9 9 11 10 5 4 4 3 3 7
5 4 4 5 4 2 3 5 4 6 5 7 5 8 5 6 7 8 7 5 4 3 6 3 3 3 2 3 4 4 2 2 5 7 6 3 4 9 10 11 10 8 10 9
2 2 3 2 1 2 4 7 7 6 4 2 4 4 2 5 2 4 3 6 4 3 3 2 2 4 5 5 4 3 3 4 4 5 5 1 6 9 8 10 10 9 7 6
3 7 4 5 3 5 4 6 4 4 4 7 6 6 2 2 6 6 6 5 4 6 6 6 3 5 5 5 3 3 2 1 5 4 6 6 8 11 14 12 9 8 9 9
7 6 3 5 2 3 9 6 4 6 4 3 7 6 4 4 3 3 2 5 6 5 4 3 3 3 2 2 1 1 2 4 3 3 5 4 2 3 2 3 7 11 11 6
4 6 3 5 5 4 2 5 7 6 2 0 8 7 7 5 2 5 4 1 3 3 3 2 2 3 5 5 4 3 2 3 1 2 5 5 6 6 5 7 9 7 5 6
6 6 5 3 5 7 10 6 6 7 1 7 6 10 8 5 2 4 4 2 2 3 2 3 3 4 6 5 5 4 4 2 3 3 5 8 8 8 8 9 6 4 6 9
2 3 6 3 5 8 7 4 5 6 11 11 12 9 8 5 5 5 4 3 2 2 4 5 2 3 5 5 6 7 6 9 7 4 2 4 7 11 11 8 6 6 8 5
7 5 4 3 2 6 6 6 8 9 1 10 7 7 8 5 7 6 5 3 4 3 5 5 5 5 6 6 5 6 7 7 8 7 7 8 7 4 5 7 6 8 8 9
2 8 6 9 8 4 5 4 4 6 9 8 9 5 8 9 6 6 4 5 2 2 2 2 2 3 5 7 7 7 6 7 8 9 5 3 6 6 4 4 4 5 8 8
3 4 4 3 3 4 3 1 2 2 7 7 6 7 8 9 7 6 5 5 3 2 2 4 6 7 6 4 3 2 5 4 3 4 8 8 4 5 6 4 4 6 4 5
5 6 6 3 5 4 3 1 5 6 7 8 7 7 9 9 7 7 6 5 4 2 2 3 4 5 7 8 9 6 6 6 7 6 4 6 6 5 5 5 5 5 6 6
4 7 5 6 7 5 5 3 6 9 9 12 11 7 5 6 8 6 6 5 4 3 1 3 4 6 8 9 10 10 7 5 6 9 7 6 5 6 6 6 6 9 11 12
Wind_Direction
196 127 222 237 209 237 208 212 238 239 328 28 201 53 175 172 176 179 176 196 209 220 221 211 209 209 202 195 193 190 189 183 162 159 177 216 226 212 210 195 212 200 180 183
359 239 242 204 241 232 222 192 250 337 102 207 350 217 171 178 201 186 185 199 217 216 215 218 217 214 211 197 203 198 199 180 186 190 190 173 174 214 170 186 202 203 190 186
178 242 317 312 280 172 215 170 208 205 73 13 34 306 165 198 196 188 194 207 213 214 211 211 210 215 216 215 198 201 204 197 191 190 138 108 73 71 179 225 211 209 188 191
234 274 232 288 257 135 297 189 159 140 119 213 64 273 315 189 192 198 207 204 206 215 218 216 213 219 215 216 212 206 195 201 196 180 185 195 203 209 211 203 193 191 189 201
257 242 234 246 231 157 227 121 151 157 87 87 300 44 268 120 212 213 206 211 209 212 210 213 213 215 218 212 204 197 195 196 190 191 196 193 208 218 171 174 192 191 188 198
250 262 237 208 272 195 116 83 47 53 64 4 356 137 296 154 263 172 209 213 207 210 213 215 213 208 215 214 210 195 192 200 192 191 196 200 206 199 196 194 214 186 187 208
333 281 277 206 273 359 64 62 3 34 33 220 302 101 255 297 275 220 174 205 214 215 215 210 210 205 210 207 209 204 191 200 196 193 197 202 206 194 206 209 212 180 181 204
35 349 11 345 225 188 62 137 145 182 164 271 350 267 278 316 308 157 121 164 185 221 230 221 210 203 207 203 198 196 191 194 187 193 204 203 207 201 212 201 198 211 209 213
123 283 311 238 330 60 152 44 167 103 19 74 274 291 322 342 29 38 25 0 316 296 281 212 201 204 203 199 191 188 189 194 187 195 201 205 200 201 205 198 192 205 216 221
185 341 324 295 41 27 112 151 40 13 105 77 312 284 235 282 170 282 264 255 295 322 343 345 184 180 142 163 171 182 189 194 193 193 197 205 201 201 208 176 204 211 213 192
116 138 290 17 28 321 14 40 52 109 101 145 121 274 219 210 216 231 267 255 13 3 10 31 63 107 142 155 183 189 191 183 189 183 197 200 206 201 190 197 206 215 202 185
182 129 191 215 358 289 4 109 107 112 225 82 131 279 262 250 324 7 305 20 356 50 31 46 65 80 101 68 58 74 138 140 133 132 144 268 317 259 201 216 213 200 217 205
184 34 21 353 359 354 48 16 111 104 83 186 126 264 315 35 50 344 231 296 327 69 62 57 51 45 53 71 63 41 162 161 155 166 171 176 180 193 214 221 263 258 239 231
84 108 148 176 203 182 29 9 91 106 104 181 221 282 302 354 330 310 272 176 76 77 72 32 44 54 18 107 121 119 107 175 182 175 179 181 192 187 152 100 54 11 287 252
103 148 176 231 223 189 216 226 193 199 194 158 258 208 277 299 296 285 269 135 108 57 75 81 308 308 283 277 108 114 106 202 204 204 226 305 170 137 120 123 133 119 92 66
19 187 165 270 179 218 260 253 235 225 128 265 166 246 288 320 23 18 45 127 144 135 28 84 296 312 307 282 282 215 200 252 302 271 262 150 157 138 156 153 151 140 145 130
128 133 104 249 354 6 335 246 219 197 172 154 173 209 62 30 49 20 40 100 114 57 47 41 360 298 291 284 275 352 357 15 280 272 263 252 225 187 193 192 189 198 200 190
148 131 131 200 56 248 243 286 202 115 19 146 112 122 135 106 86 54 17 133 125 109 62 21 329 329 355 326 216 355 109 158 205 305 296 292 271 209 182 195 238 245 244 232
152 124 149 154 184 272 19 203 167 145 350 20 141 150 151 157 111 6 340 347 178 172 172 273 315 321 331 6 18 1 9 39 63 148 196 214 219 211 197 224 243 268 267 263
78 78 121 134 164 202 231 208 158 119 317 219 201 173 163 143 108 245 260 273 238 257 244 264 303 345 337 335 4 31 63 148 168 237 223 198 198 212 219 223 238 230 229 229
37 38 171 173 223 283 245 161 138 106 233 169 188 195 169 181 191 172 166 201 208 266 323 6 35 349 329 344 10 15 6 6 337 310 282 219 215 225 226 227 213 235 227 214
172 161 200 113 135 266 162 76 157 207 18 155 160 177 174 156 134 148 173 163 155 120 38 40 53 35 10 18 32 22 15 339 333 346 345 330 312 268 230 230 210 211 227 252
212 185 187 172 212 230 238 259 268 177 142 161 153 153 150 147 166 161 170 183 186 99 106 79 45 16 21 20 21 6 338 348 339 332 340 305 313 318 314 278 238 215 212 226
240 159 158 79 267 256 302 141 168 163 124 126 124 145 160 158 157 173 184 187 172 140 41 12 9 355 335 347 335 290 317 327 352 336 328 334 319 307 308 310 283 272 236 227
202 135 157 249 273 280 281 197 151 105 102 114 128 154 169 150 177 166 167 178 176 148 42 32 12 338 317 331 332 338 340 349 341 334 314 309 317 307 280 269 264 245 257 244
188 180 152 214 216 156 232 197 151 146 160 154 143 134 158 169 166 147 155 164 159 145 61 1 337 325 318 327 322 325 338 350 330 335 327 308 297 305 305 292 284 254 248 266